Regional Weather Roundup
Issued by NWS

Home | Current Version | Previous Version | Text Only | Print | Product List | Glossary Off
Versions: 1 2 3 4 5 6 7 8 9 10 11 12 13 14 15 16 17 18 19 20 21 22 23 24 25 26 27 28 29 30 31 32 33 34 35 36 37 38 39 40 41 42 43 44 45 46 47 48 49 50

000
ASUS43 KMKX 231321
RWRWI

WISCONSIN REGIONAL WEATHER ROUNDUP
NATIONAL WEATHER SERVICE MILWAUKEE/SULLIVAN WI
800 AM CDT THU MAR 23 2017

NOTE: "FAIR" INDICATES FEW OR NO CLOUDS BELOW 12,000 FEET WITH NO
SIGNIFICANT WEATHER AND/OR OBSTRUCTIONS TO VISIBILITY.

WIZ001-002-006>008-014>016-023>028-231400-
NORTHWEST WISCONSIN

CITY           SKY/WX    TMP DP  RH WIND       PRES   REMARKS
SUPERIOR ARPT  CLOUDY    31  28  86 E5        30.16F WCI  27
ASHLAND        CLOUDY    30  26  85 S5        30.20F WCI  25
HAYWARD        CLOUDY    32  23  69 SE15G24   30.18F WCI  22
SIREN          CLOUDY    32  24  71 S9G16     30.15F WCI  24
CUMBERLAND     CLOUDY    30  23  74 SE10      30.17F WCI  21
RICE LAKE      CLOUDY    32  24  73 SE15      30.20F WCI  21
CHETEK         CLOUDY    31  23  72 SE13G20   30.20F WCI  21
LADYSMITH      CLOUDY    30  25  80 E9        30.23F WCI  22
EAU CLAIRE     CLOUDY    33  20  58 SE14      30.21F WCI  23
MENOMONIE      CLOUDY    35  22  58 SE10      30.20F WCI  27
NEW RICHMOND   CLOUDY    35  20  55 SE10      30.15F WCI  27
OSCEOLA        CLOUDY    36  22  56 SE12      30.17F WCI  27
$$

WIZ003>005-009-010-017-018-231400-
NORTH CENTRAL WISCONSIN

CITY           SKY/WX    TMP DP  RH WIND       PRES   REMARKS
MANITOWISH WTR LGT SNOW  25  25  99 S12       30.24F WCI  14
ARBOR VITAE    LGT SNOW  27  24  89 S10       30.25F WCI  17
WOODRUFF       LGT SNOW  27  24  89 S10       30.25F WCI  17
RHINELANDER    LGT SNOW  26  23  88 S7        30.29F FOG     WCI  18
EAGLE RIVER    LGT SNOW  25  21  85 S8        30.28F WCI  16
LAND O LAKES   SNOW      26  23  89 S7        30.29S VSB 1/2 WCI  18
PHILLIPS       CLOUDY    27  24  86 SE10      30.22F WCI  17
TOMAHAWK       CLOUDY    25  22  89 SE3       30.29F
MEDFORD        CLOUDY    28  19  71 SE9G17    30.25F WCI  19
MERRILL        CLOUDY    26  23  89 SE7       30.32S WCI  18
$$

WIZ029-030-035-036-043>047-231400-
CENTRAL WISCONSIN

CITY           SKY/WX    TMP DP  RH WIND       PRES   REMARKS
WAUSAU         CLOUDY    28  18  66 SE10      30.30F WCI  19
MOSINEE        CLOUDY    27  19  74 SE8       30.32F WCI  18
MARSHFIELD     CLOUDY    29  18  63 SE14      30.26F WCI  18
STEVENS POINT  CLOUDY    26  19  72 SE9       30.33F WCI  17
WAUPACA        CLOUDY    31  23  72 E8        30.37F WCI  23
WAUTOMA        CLOUDY    29  23  78 SE5         N/A  WCI  24
WISC RAPIDS    CLOUDY    29  20  69 SE7       30.32F WCI  22
CAMP DOUGLAS   CLOUDY    30  21  69 SE9       30.30F WCI  22
$$

WIZ011>013-019>022-031-037>040-048>050-231400-
NORTHEAST WISCONSIN

CITY           SKY/WX    TMP DP  RH WIND       PRES   REMARKS
ANTIGO         LGT SNOW  24  19  81 S9        30.32F WCI  15
SHAWANO        CLOUDY    30  22  73 CALM      30.38F
OCONTO         CLOUDY    28  22  78 CALM      30.40F
STURGEON BAY   CLOUDY    31  26  82 S8        30.41F WCI  23
GREEN BAY      CLOUDY    30  26  85 S3        30.40F
MANITOWOC      CLOUDY    34  27  75 S8        30.42S WCI  27
APPLETON       CLOUDY    30  23  74 SE10      30.37S WCI  21
CLINTONVILLE   CLOUDY    30  23  74 S6        30.36F WCI  24
OSHKOSH        CLOUDY    31  24  75 SE9       30.37F WCI  23
$$

WIZ032>034-041-042-053>061-231400-
SOUTHWEST WISCONSIN

CITY           SKY/WX    TMP DP  RH WIND       PRES   REMARKS
LA CROSSE      CLOUDY    35  21  56 SE16      30.26F WCI  25
SPARTA         CLOUDY    33  20  59 SE10      30.29F WCI  25
VIROQUA        CLOUDY    31  21  65 SE16      30.24F WCI  20
BOSCOBEL       CLOUDY    34  21  59 VRB5      30.31F WCI  30
PRAIRIE DU CHI CLOUDY    34  20  57 SE12      30.28F WCI  25
PLATTEVILLE    CLOUDY    33  24  70 SE16      30.30F WCI  22
$$

WIZ056-057-062-063-064-067-068-231400-
SOUTH CENTRAL WISCONSIN

CITY           SKY/WX    TMP DP  RH WIND       PRES   REMARKS
REEDSBURG      CLOUDY    32  21  64 SE6       30.31F WCI  26
BARABOO/DELLS  CLOUDY    31  21  68 SE7       30.32F WCI  24
LONE ROCK      CLOUDY    33  20  58 SE12      30.33F WCI  24
MINERAL POINT  CLOUDY    32  23  69 SE16      30.29F WCI  21
MADISON        CLOUDY    32  21  64 SE12      30.35F WCI  23
MIDDLETON      CLOUDY    33  24  70 SE10      30.35F WCI  24
WATERTOWN      CLOUDY    31  22  67 SE6       30.38R WCI  26
MONROE         CLOUDY    32  23  69 SE8       30.33S WCI  25
JANESVILLE     CLOUDY    34  21  60 SE12      30.36S WCI  25
$$

WIZ051-052-058>065-066-070>072-231400-
SOUTHEAST WISCONSIN

CITY           SKY/WX    TMP DP  RH WIND       PRES   REMARKS
MILWAUKEE      CLOUDY    35  22  58 SE14      30.40F WCI  26
WAUKESHA       CLOUDY    30  21  69 SE9       30.40F WCI  22
MILWAUKEE/TIMM CLOUDY    32  21  64 SE8       30.42S WCI  25
RACINE         CLOUDY    34  20  56 S12       30.43S WCI  25
KENOSHA        CLOUDY    33  20  58 SE12G21   30.40F WCI  24
FOND DU LAC    CLOUDY    32  23  69 S10       30.38F WCI  24
SHEBOYGAN      CLOUDY    31  26  82 S5        30.41S WCI  26
WEST BEND      CLOUDY    32  27  80 SE3       30.40S
JUNEAU         CLOUDY    31  22  69 SE12      30.38F WCI  22
$$

LSZ147-162-231400-
LAKE SUPERIOR

STATION/POSITION TIME  TEMP    WIND        PRES    WAVE
                       AIR SEA DIR/SP/G            HT/PER
                 (UTC) (F)     (DEG/KT/KT) (MB)    (FT/S)
DEVILS ISLAND    1200   30     170/  9/ 14 1025.1F
PORT WING        1300   31     150/  4/ 13 1021.7
SAXON HARBOR     1240   30     150/  6/ 10 1022.4F
$$

LMZ867-665-643>646-231400-
LAKE MICHIGAN

STATION/POSITION TIME  TEMP    WIND        PRES    WAVE
                       AIR SEA DIR/SP/G            HT/PER
                 (UTC) (F)     (DEG/KT/KT) (MB)    (FT/S)
CHAMBERS ISLAND  1240   29     160/  1/  3 1029.1F
NORTHPORT PIER   1240   32     170/  3/  8 1029.8S
SISTER BAY       1121   29        CALM       N/A
KEWAUNEE LAKESHO 1254   33     190/ 12/ 14 1029.4S
SHEBOYGAN LAKESH 1300   35     180/ 17/ 18 1030.5F
PORT WASHINGTON  1230   35     170/ 15/ 18 1030.5F
MILWAUKEE LAKESH 1250   35     160/ 16/ 18   N/A
KENOSHA   LAKESH 1200   34     160/ 20/ 23 1029.8
$$

TC  - TEMPERATURE IN CELSIUS
VSB - VISIBILITY IN STATUTE MILES
WCI - WIND CHILL INDEX
HX  - HEAT INDEX





USA.gov is the U.S. government's official web portal to all federal, state and local government web resources and services.